Wind_Speed
12 12 12 13 13 13 13 13 13 14 14 14 13 13 13 13 13 13 13 13 14 14 14 15 15 15 15 16 16 16 16 16 15 15 16 16 17 17 17 17 17 16 17 17 17 17 17 17 16 15 15 15 16 16 17 17 16 17 19 20 20 19 18 16 15 17 20 19 19 19 19 23 22 20 23 24 23 22 22 20 20 20 19 19 19 19 20 21
14 14 14 14 14 14 14 15 15 15 15 15 15 15 15 15 15 15 15 14 14 14 15 15 16 16 17 17 18 18 18 17 17 17 17 18 18 18 19 19 19 19 18 19 19 19 19 19 19 18 17 17 17 18 19 18 18 20 21 23 22 20 20 18 17 18 20 21 22 21 22 24 23 22 24 26 25 23 23 20 20 21 19 18 20 20 21 21
15 15 15 15 16 16 16 16 16 17 17 17 17 17 17 17 17 17 17 17 16 16 16 16 16 17 17 18 19 19 20 19 18 18 19 19 19 19 19 20 20 20 20 20 20 20 20 21 21 21 20 19 19 20 20 20 21 22 24 26 23 20 22 21 18 18 20 23 25 24 24 24 23 24 26 27 27 25 23 21 20 21 19 19 21 23 23 23
16 17 17 17 17 17 17 17 18 18 18 19 19 19 19 19 19 19 19 19 19 19 18 18 18 18 18 18 19 19 20 20 19 18 19 19 19 19 19 19 20 20 20 20 20 20 20 21 22 22 22 22 22 23 22 21 22 25 27 27 24 22 24 23 19 19 21 24 26 26 26 26 24 26 28 28 30 28 22 21 22 22 22 22 23 24 25 25
18 18 18 18 18 18 18 18 19 19 20 20 20 20 20 20 20 20 21 21 21 21 21 21 21 20 20 20 20 20 21 20 17 16 17 17 17 17 18 18 19 19 18 19 19 19 20 21 22 22 23 24 25 25 24 21 23 27 29 28 25 24 26 25 21 21 23 25 27 27 28 28 28 29 30 31 33 29 23 22 24 24 23 23 23 22 22 23
19 19 20 19 19 19 19 20 20 20 21 21 22 22 22 22 22 22 22 22 22 22 22 23 22 22 22 22 22 22 23 20 15 16 17 17 17 16 17 17 18 19 20 20 21 21 21 22 23 23 24 25 26 25 24 23 24 28 30 28 26 26 27 26 24 25 25 26 27 27 28 29 30 31 31 34 34 28 25 24 25 24 22 21 22 21 21 21
21 21 21 21 21 21 21 21 21 22 22 22 23 23 23 23 23 23 23 23 23 23 23 23 24 24 24 24 24 24 27 23 17 20 22 20 21 20 20 19 20 22 23 23 23 22 22 23 23 23 24 25 26 25 25 24 25 28 30 28 27 27 28 26 26 28 27 27 27 28 30 29 30 32 35 38 34 28 25 25 25 23 20 20 22 23 23 22
22 23 23 23 23 23 23 23 23 23 23 24 24 24 25 25 25 25 24 24 24 24 24 24 25 25 25 26 26 27 29 24 18 21 23 22 22 22 21 21 22 24 24 24 24 23 23 23 22 23 24 25 26 27 26 26 27 29 29 28 28 29 29 28 28 30 30 29 29 30 31 28 29 33 40 41 34 28 25 25 26 23 21 21 21 23 24 24
23 24 24 24 24 23 23 24 24 24 24 24 25 25 26 26 26 26 26 26 25 26 25 26 26 25 26 26 27 30 27 20 18 21 22 22 22 21 21 22 23 24 24 24 24 24 24 24 24 24 26 26 28 28 28 28 29 30 30 30 30 31 31 31 31 31 31 31 31 33 32 29 30 34 43 42 32 28 25 24 26 25 25 23 23 24 25 25
25 25 25 25 25 25 25 25 25 25 25 25 25 26 26 26 27 27 27 27 27 27 27 27 27 27 27 26 29 31 23 17 19 22 23 23 23 23 23 24 25 25 25 26 27 27 27 27 27 27 28 28 29 29 29 30 31 31 32 33 32 33 33 33 34 33 33 33 33 36 35 31 31 37 45 40 30 27 26 26 27 28 28 27 27 26 25 26
27 27 27 27 27 27 27 27 27 26 26 27 27 27 27 27 27 27 27 27 27 28 28 28 28 28 29 28 30 28 21 20 23 23 24 24 24 25 25 27 28 28 29 29 30 30 30 30 30 30 29 29 29 30 31 32 33 33 34 35 34 34 34 34 36 35 35 35 34 37 39 35 33 38 43 37 31 30 29 29 29 31 31 30 30 29 28 27
27 27 28 28 28 27 27 28 27 28 28 28 29 29 29 29 29 29 28 28 28 29 29 29 30 29 30 30 29 25 22 24 25 24 25 24 24 25 27 29 29 30 31 31 32 32 31 31 31 30 29 30 30 30 32 32 33 34 35 37 36 37 37 35 36 35 35 35 34 37 40 38 35 38 39 35 33 32 32 31 31 32 32 32 33 32 32 29
27 28 28 28 28 28 27 28 27 28 28 28 29 29 29 29 30 30 30 30 30 30 30 31 32 31 33 32 26 24 24 24 25 24 24 23 24 26 28 29 30 31 32 33 33 32 32 32 32 31 30 30 30 30 32 33 35 36 37 39 39 40 39 35 34 34 34 35 35 36 41 42 37 35 35 33 33 34 35 34 33 34 34 34 34 35 35 33
29 29 29 29 28 28 28 28 28 28 28 29 29 29 29 29 30 30 30 30 30 31 31 32 33 33 36 33 27 27 28 26 26 25 24 24 25 27 28 29 30 31 33 33 33 33 33 32 31 30 29 28 28 30 33 35 36 35 37 39 39 40 39 34 32 34 34 35 36 36 42 46 41 35 33 33 35 36 37 36 35 36 36 36 36 36 37 36
29 29 29 29 29 29 29 29 29 29 29 30 30 30 30 29 29 30 30 30 30 31 31 32 33 34 37 35 30 30 30 28 28 26 25 24 24 25 26 28 29 30 31 32 32 32 31 31 31 29 27 25 25 29 33 35 35 33 36 39 38 40 41 35 29 32 35 37 38 39 44 49 45 38 32 32 36 38 39 39 37 38 38 39 39 39 40 39
29 29 29 29 29 29 29 29 29 29 30 31 31 31 31 30 30 30 30 31 31 31 31 32 32 33 36 35 31 30 29 29 28 27 26 25 26 28 29 30 30 30 31 32 33 32 32 32 31 28 26 25 25 30 35 35 35 34 37 40 39 40 40 36 31 31 36 41 41 41 46 50 47 40 35 33 36 40 42 42 40 40 40 40 41 41 41 40
28 28 29 29 29 29 29 29 29 29 30 31 31 31 31 31 30 30 30 30 31 31 31 32 32 35 37 35 32 30 28 28 27 26 25 25 27 28 29 30 29 28 29 29 30 30 30 30 29 28 26 24 24 30 33 32 35 38 38 40 40 39 38 37 36 32 35 42 43 44 49 52 48 43 39 35 35 40 44 44 43 42 42 41 41 41 41 40
28 28 28 28 28 29 28 29 29 29 29 30 31 31 31 32 32 31 31 31 31 32 33 33 33 35 35 30 28 26 25 25 26 25 25 25 27 29 31 32 31 30 29 28 28 30 31 32 32 31 28 27 28 32 36 34 38 40 38 39 40 39 38 38 39 35 35 43 45 47 52 53 49 45 42 39 36 39 42 43 44 43 43 42 41 41 40 40
28 28 28 28 28 28 28 28 28 28 29 29 30 31 32 33 33 33 32 32 32 32 33 33 32 34 33 30 28 29 28 28 29 28 27 28 30 32 33 34 34 34 33 32 33 35 35 37 37 35 34 35 36 39 42 40 41 41 40 40 40 41 41 40 41 39 37 44 47 47 52 55 52 48 43 39 37 39 41 40 41 41 42 41 40 40 39 39
28 28 28 28 28 27 28 28 28 29 28 28 29 30 32 33 33 34 34 33 32 33 34 34 35 37 37 34 32 32 31 30 29 28 29 29 31 32 34 35 36 37 37 37 38 39 39 41 42 41 40 40 39 40 42 41 40 40 40 41 41 43 44 42 41 38 37 46 52 49 53 55 52 49 45 41 40 41 40 38 39 39 40 40 39 37 36 36
29 28 28 28 28 28 28 28 28 29 29 29 29 29 30 31 33 35 37 36 33 33 35 35 37 40 39 35 33 33 33 33 31 31 32 32 31 34 36 37 38 40 39 37 38 39 41 45 46 43 41 40 39 37 39 40 39 40 40 41 43 43 45 44 40 37 37 46 54 50 52 58 54 51 47 42 41 42 42 40 39 37 35 36 37 35 33 31
29 29 29 29 29 29 29 29 30 29 30 29 28 29 29 30 31 34 39 42 38 35 37 37 38 41 39 34 33 34 35 36 34 33 32 32 33 35 38 39 41 42 40 37 38 41 45 49 45 39 37 37 37 36 37 39 38 38 39 41 44 43 44 46 41 38 38 44 50 50 56 62 56 53 50 45 45 44 40 36 31 30 31 33 34 33 31 29
28 28 28 28 29 29 29 29 30 30 29 28 28 28 29 30 31 33 38 44 45 39 36 37 38 40 37 33 32 33 36 38 35 33 31 33 36 35 37 41 42 43 42 40 40 43 46 45 39 34 33 34 35 34 34 35 37 39 39 40 45 43 43 47 44 41 41 44 50 52 59 66 59 51 46 38 38 37 32 31 30 30 33 32 31 30 28 23
27 26 27 28 29 28 28 28 29 29 28 28 27 28 29 30 32 35 38 45 50 46 39 39 40 39 35 32 32 32 36 37 36 34 32 34 36 36 39 42 42 44 45 43 42 46 47 42 38 36 36 37 37 36 34 35 39 42 43 42 45 44 42 46 45 43 44 45 46 46 54 61 46 28 25 28 35 38 33 31 32 33 34 32 28 22 15 13
27 27 28 29 28 28 27 27 27 27 28 27 27 27 29 30 32 36 39 43 51 49 41 38 36 33 28 24 25 29 34 36 36 34 33 35 36 37 40 41 42 44 43 41 41 46 47 40 36 38 38 37 38 39 35 35 40 45 45 41 40 42 42 42 40 39 40 36 33 29 29 36 29 18 27 40 41 36 28 29 35 37 35 29 17 6 3 12
27 28 28 28 28 28 27 26 26 28 28 27 27 28 29 30 32 35 37 41 48 44 32 24 19 17 16 11 12 18 25 27 26 27 30 32 34 37 40 41 42 42 41 39 38 42 43 36 33 34 34 33 35 36 32 30 38 44 41 35 34 37 38 37 32 30 29 24 25 21 11 24 44 45 41 39 31 25 26 32 36 32 23 12 4 9 4 13
28 28 28 28 28 29 28 27 26 28 29 28 28 29 29 30 31 32 31 29 28 24 14 5 2 3 6 6 8 11 14 15 15 16 18 21 26 31 35 39 40 39 39 36 34 37 35 29 27 28 27 27 28 29 27 25 31 39 36 31 31 32 33 31 27 25 27 30 32 27 16 20 45 52 37 29 26 24 26 24 22 16 5 6 12 3 14 12
28 28 28 28 30 31 31 29 28 28 28 28 28 28 29 28 29 29 22 10 10 12 7 4 6 8 9 11 14 14 14 15 14 13 14 15 19 22 27 33 34 36 37 36 37 38 34 30 29 30 29 28 28 29 28 25 28 34 33 30 30 29 30 30 29 27 27 30 27 19 13 11 33 53 40 29 25 20 17 13 13 6 6 10 6 7 18 9
31 29 27 26 26 26 27 28 28 28 28 29 29 28 27 27 28 27 15 6 9 12 9 11 14 14 12 13 14 16 19 20 19 19 19 18 19 19 21 24 25 29 32 34 40 40 35 33 33 34 34 31 31 31 30 29 29 31 29 29 28 26 28 27 28 28 21 20 17 11 10 8 28 52 36 19 16 10 8 10 11 1 11 10 2 15 16 7
35 34 31 29 28 27 28 29 28 30 30 29 27 26 24 24 25 19 9 9 13 14 16 19 18 16 16 17 17 18 20 21 22 21 20 20 21 21 22 22 23 26 28 31 37 37 34 35 35 34 32 30 31 32 32 32 31 31 29 29 29 27 28 25 25 23 11 13 21 18 16 13 16 27 17 10 10 4 4 7 11 8 9 9 11 20 14 13
35 35 34 35 35 35 35 33 30 30 29 28 26 22 21 22 21 11 7 12 17 16 18 18 14 12 12 14 16 17 18 19 21 21 20 21 20 21 22 21 21 23 27 30 33 32 31 32 34 34 33 31 31 31 32 32 31 30 28 28 26 21 19 16 15 13 3 10 23 18 16 19 19 17 13 10 9 8 13 16 17 18 14 16 20 18 14 18
34 34 34 35 36 36 36 34 31 29 28 28 24 21 20 19 19 20 20 19 13 7 7 6 4 4 4 6 9 10 13 14 16 18 20 20 20 21 21 21 20 20 24 29 31 34 37 39 39 39 39 35 31 29 30 31 30 30 29 26 17 8 7 6 4 4 6 14 22 13 7 20 34 39 34 26 25 27 28 26 23 18 16 21 22 18 19 25
35 34 34 35 36 35 35 33 31 29 29 28 23 21 19 13 15 24 26 20 11 7 9 9 9 12 16 19 19 19 21 21 21 22 23 24 25 26 25 25 25 23 26 31 34 36 39 44 43 39 38 35 31 29 29 30 30 28 29 26 16 5 1 4 4 3 7 16 21 16 12 17 30 39 36 31 31 28 23 21 20 19 22 25 24 24 25 23
36 36 36 36 36 35 35 34 32 31 28 26 23 21 18 19 23 26 24 23 22 21 25 26 26 29 31 33 32 31 30 28 26 25 26 27 28 30 30 30 30 30 31 31 31 30 27 30 33 28 26 27 28 26 24 26 28 28 28 25 22 19 11 5 5 4 6 10 10 12 11 9 16 23 27 31 35 33 31 32 32 32 31 27 25 25 19 14
38 39 39 38 38 38 37 36 34 32 28 26 25 22 26 32 33 31 29 29 28 28 30 31 31 33 34 35 33 31 27 23 22 23 25 29 31 33 34 32 29 28 28 25 24 24 21 26 31 24 20 23 24 23 22 23 25 26 26 24 27 31 27 17 14 16 12 6 5 11 15 22 32 41 45 46 49 46 40 37 32 26 23 20 22 18 10 12
42 42 43 43 42 40 39 37 36 33 30 28 26 29 39 43 37 33 33 30 27 25 25 25 27 30 31 30 28 26 24 23 23 23 25 28 30 31 31 28 25 26 28 28 28 23 19 26 33 28 24 24 21 19 20 21 21 19 19 22 27 30 30 23 17 20 16 7 12 19 23 34 41 46 48 43 39 37 32 28 23 22 22 19 18 15 13 20
43 44 46 46 44 40 38 38 35 32 30 29 31 39 47 48 44 43 41 38 36 32 28 28 28 28 25 24 25 24 21 21 21 21 21 22 22 25 28 27 27 28 28 29 32 28 25 31 39 39 36 33 30 27 25 27 28 24 22 24 25 22 24 22 10 7 9 6 12 20 28 33 28 30 40 38 36 39 39 37 33 30 24 18 20 25 25 28
41 42 43 43 40 36 35 35 34 33 31 31 37 45 49 48 48 48 44 42 41 37 34 33 32 30 28 29 32 30 24 22 20 19 21 22 22 25 29 28 27 28 27 27 29 29 28 29 35 41 37 29 30 31 28 27 29 29 29 29 25 16 15 17 9 3 6 6 6 14 24 31 31 38 48 48 48 50 47 40 33 26 23 26 34 35 31 29
38 37 38 38 35 32 30 30 31 32 32 36 41 45 48 49 48 47 45 44 42 38 36 36 35 33 32 34 35 32 28 27 23 21 22 22 21 20 20 20 20 21 22 23 24 25 25 21 24 36 37 27 29 34 30 27 25 25 27 29 30 26 20 18 15 8 7 7 7 10 13 21 36 49 54 52 50 47 40 34 28 26 31 37 39 35 32 32
34 34 35 34 32 30 27 25 28 31 35 41 44 45 47 47 45 45 44 42 40 37 36 37 36 35 36 37 36 35 34 33 31 29 27 25 26 24 21 18 19 20 20 22 23 26 26 21 23 35 38 31 32 36 33 30 27 26 27 28 30 33 30 25 22 22 18 9 6 8 8 17 34 45 51 51 44 36 36 38 39 40 41 40 35 32 33 35
31 31 32 31 30 29 26 25 28 32 37 40 42 44 45 44 44 45 44 42 40 39 38 37 36 37 38 37 37 36 34 33 34 33 32 32 32 30 27 24 24 25 26 27 29 31 29 23 24 31 37 40 42 42 41 38 36 35 35 35 35 36 32 21 14 23 29 20 13 12 9 17 31 41 50 54 47 43 45 47 49 48 43 39 37 37 39 42
29 30 30 28 28 27 25 26 28 31 35 38 39 41 41 42 43 42 43 43 41 39 39 39 38 39 39 39 39 39 36 37 38 36 36 37 36 35 34 32 31 30 30 32 33 34 34 31 30 34 41 48 50 48 45 42 40 38 35 35 35 33 33 24 13 19 27 26 26 23 14 18 33 43 49 50 49 50 48 45 45 44 41 40 42 43 45 47
29 28 27 27 27 26 24 26 28 30 34 36 36 37 37 39 41 40 41 41 39 36 37 37 37 37 37 37 37 37 37 38 39 39 39 39 38 38 36 35 34 31 30 31 31 30 30 29 32 36 40 46 48 47 44 40 37 35 34 35 35 35 38 36 32 30 25 21 23 18 10 14 27 37 44 46 48 50 48 46 43 38 38 41 44 48 50 51
26 25 24 24 25 25 25 28 30 31 33 33 33 34 35 36 38 39 40 39 37 35 36 36 36 35 36 36 35 36 36 35 35 34 32 31 30 29 28 29 29 27 26 27 26 25 24 24 23 20 18 22 26 28 29 28 27 27 28 29 32 35 37 38 41 37 24 22 27 18 10 18 26 33 43 46 47 48 45 44 43 40 43 48 49 50 51 52
25 25 23 23 24 25 28 30 32 32 31 31 33 33 33 35 37 37 38 38 37 36 37 37 36 36 37 36 35 37 37 35 32 28 26 28 27 27 28 29 29 28 28 29 31 32 32 31 30 21 10 9 14 17 18 18 18 19 22 24 27 31 31 33 37 32 19 23 33 25 20 31 37 37 41 41 41 43 43 44 48 51 54 55 53 50 48 49
25 26 25 23 22 25 28 28 30 32 31 31 32 33 34 37 37 36 37 38 37 36 37 38 37 37 37 36 36 37 38 38 35 31 32 35 34 33 33 33 32 32 32 32 33 34 31 29 32 32 27 25 28 32 32 30 28 30 33 35 37 38 38 38 35 31 27 29 34 35 35 42 42 40 40 38 36 38 42 48 53 56 56 57 57 57 56 55
26 26 25 22 20 22 25 26 29 32 32 32 32 33 36 38 37 36 36 36 36 35 36 38 38 38 38 37 36 35 36 38 37 36 37 37 38 39 38 37 37 36 36 35 35 36 33 30 32 36 36 37 39 41 41 40 40 40 39 41 42 42 43 43 40 40 40 32 27 34 40 42 42 41 40 41 39 39 43 47 52 56 59 60 61 61 61 61
27 27 26 25 24 23 24 26 28 30 32 35 37 36 37 39 38 36 33 31 32 32 31 31 32 34 35 35 34 34 35 37 37 36 35 35 37 38 38 37 36 36 36 35 34 33 32 34 38 40 38 36 37 39 40 40 39 37 35 35 37 38 39 42 45 46 43 35 32 39 44 45 50 50 48 49 49 49 50 51 54 58 61 63 64 64 63 62
28 29 28 28 29 30 29 29 30 30 30 33 38 39 38 40 41 38 35 35 36 36 34 33 34 36 37 38 38 39 39 38 37 36 36 35 35 35 37 37 35 34 33 31 28 25 24 26 29 30 30 30 30 32 35 36 36 37 37 35 35 37 40 44 46 44 44 46 48 48 46 46 47 47 49 50 49 49 51 51 52 54 57 60 63 64 64 62
29 30 30 30 32 32 31 31 31 32 32 32 36 37 36 39 41 40 39 38 38 39 38 38 40 40 40 40 40 40 39 37 35 34 32 32 30 29 31 32 32 32 31 29 29 27 26 28 29 30 33 36 39 41 41 40 40 40 40 40 42 46 49 51 50 49 49 50 49 47 44 41 37 37 38 40 42 46 48 49 51 52 54 57 59 61 61 59
29 30 30 31 32 31 32 33 32 33 34 34 36 36 36 38 40 40 40 37 34 35 35 35 35 33 30 32 32 31 30 29 30 29 29 30 30 29 29 32 34 36 36 37 39 39 38 37 38 37 34 36 46 49 47 45 42 37 39 44 48 50 50 49 49 48 47 47 46 45 42 39 37 38 36 34 36 40 41 42 45 46 47 49 51 52 53 53
29 30 30 31 32 32 33 34 33 34 36 35 35 35 35 37 39 39 39 36 34 34 34 35 36 34 32 33 32 31 31 32 33 35 36 38 40 42 42 42 43 45 47 47 47 48 47 42 41 37 30 33 43 44 42 37 27 27 39 47 47 45 44 43 43 41 41 43 42 40 37 37 39 41 39 35 33 32 31 31 33 36 39 41 42 44 45 47
Wind_Direction
268 269 270 271 271 272 274 274 276 278 279 280 280 280 279 278 276 275 273 271 271 271 271 271 271 271 272 273 272 273 273 274 275 275 276 276 277 279 280 281 282 282 283 284 286 287 286 286 286 286 287 289 289 290 290 290 291 290 287 285 284 286 292 299 300 296 292 289 285 285 287 287 288 289 289 288 288 290 291 293 297 300 306 308 304 299 293 288
266 267 269 270 271 272 273 273 275 276 276 278 279 280 280 281 282 281 280 278 276 274 273 273 273 273 273 273 272 272 272 273 274 274 273 274 276 278 280 281 281 282 282 282 282 283 283 283 282 282 284 286 287 289 288 288 288 287 285 282 282 288 294 295 294 294 293 291 288 288 289 289 292 295 292 289 290 291 291 298 304 303 306 305 301 296 292 287
265 265 265 267 269 271 271 273 274 274 275 276 277 278 278 279 280 281 282 283 282 281 278 277 276 275 275 274 274 274 273 273 274 275 274 275 277 279 280 280 281 281 280 280 280 280 280 280 279 280 283 284 286 287 286 286 286 284 281 280 284 291 290 288 292 293 290 288 287 289 288 287 292 294 290 290 292 290 294 306 307 302 303 302 297 293 290 285
267 267 266 267 268 269 270 272 272 273 274 274 275 276 277 278 279 280 281 282 283 283 282 282 281 279 277 277 277 276 275 276 276 276 277 277 277 277 278 279 279 279 279 280 281 281 280 279 279 280 282 284 286 286 286 286 284 280 278 280 286 288 284 286 290 288 284 283 284 287 288 288 290 288 287 290 290 289 298 308 303 301 303 300 295 291 288 285
270 270 270 270 270 271 272 273 273 274 274 275 275 275 276 277 277 279 280 281 282 282 282 282 282 282 280 280 280 279 280 282 280 278 278 279 279 278 278 278 278 278 279 281 283 283 281 280 280 280 282 283 285 286 288 287 283 280 280 282 285 286 285 286 289 284 281 280 281 285 287 289 288 286 287 288 286 290 300 303 300 302 304 299 297 296 292 288
272 273 273 273 272 273 273 274 275 276 276 277 277 277 277 277 277 278 278 280 280 281 281 281 282 281 281 280 279 279 279 278 281 281 279 278 278 277 277 277 277 277 279 282 283 281 280 279 279 280 282 282 284 286 288 286 283 281 282 284 287 288 286 287 289 284 281 280 282 286 286 286 288 289 289 285 283 291 299 299 299 302 303 297 296 299 297 291
272 273 274 274 274 274 274 275 276 276 278 279 279 280 280 280 280 280 280 281 281 281 281 281 282 281 281 280 278 277 273 274 282 283 280 278 276 276 275 274 275 276 279 281 281 280 279 278 279 281 281 282 283 284 284 283 282 282 284 288 290 288 285 287 288 285 285 284 285 287 285 286 289 291 287 282 283 290 296 296 297 299 299 293 292 295 296 292
271 271 273 273 274 274 275 275 275 276 277 278 279 280 280 281 281 281 282 282 283 283 282 282 282 282 282 280 279 275 271 278 287 281 279 279 278 278 277 275 274 274 276 279 279 278 278 278 280 280 279 280 281 282 283 284 284 284 287 291 290 288 288 288 286 286 288 288 289 287 285 287 290 290 283 279 284 292 295 294 293 294 291 289 290 293 294 293
269 270 271 272 273 273 274 274 275 275 276 277 277 278 279 279 279 280 281 281 282 282 283 282 281 282 281 280 280 275 273 285 287 278 278 279 280 281 280 278 276 274 275 276 277 276 277 278 277 276 277 278 280 283 285 285 286 287 290 289 288 288 289 289 287 287 289 290 290 287 287 288 289 288 280 278 288 296 295 289 287 287 285 287 288 289 292 291
267 269 270 271 272 273 274 274 275 275 276 276 277 277 277 277 278 278 279 280 281 281 282 282 282 281 279 279 277 273 278 288 281 276 277 277 279 280 279 278 276 275 275 274 274 275 275 275 275 275 275 277 279 282 283 284 286 288 288 287 287 288 288 288 287 288 290 291 290 289 290 288 286 283 277 280 293 297 292 284 282 283 283 285 286 287 289 286
267 268 268 269 270 271 272 273 274 274 275 276 276 276 276 276 277 277 277 278 279 280 281 281 282 280 280 278 272 273 285 284 275 274 275 275 276 277 277 275 275 274 273 272 273 274 274 273 274 274 274 276 277 279 281 283 285 286 285 285 285 286 285 286 286 289 291 292 293 292 290 286 282 278 276 284 295 293 288 283 282 283 283 283 283 285 286 283
267 268 268 269 270 270 271 272 273 273 274 274 275 275 275 276 276 276 277 277 278 278 278 280 280 279 279 275 272 279 286 279 275 274 273 276 276 273 273 272 272 272 272 272 272 272 272 273 273 273 273 274 276 279 281 282 283 283 283 283 284 284 283 283 285 289 292 293 294 292 289 284 279 277 280 287 291 291 288 284 281 280 281 281 280 280 280 280
267 268 268 269 270 271 272 273 273 274 275 275 275 275 276 276 277 277 278 278 278 277 277 278 278 278 277 274 277 282 281 277 277 277 279 281 276 271 269 269 270 270 271 271 271 272 272 272 273 272 272 273 277 279 280 280 279 280 281 281 283 283 282 285 289 292 294 292 292 291 287 283 281 280 284 289 291 290 287 284 282 280 280 280 278 277 276 276
268 269 270 271 272 272 273 274 274 275 276 276 277 277 277 278 279 279 279 279 279 279 279 278 278 278 276 276 280 281 279 279 280 283 286 282 275 271 270 270 270 269 269 270 271 271 272 273 272 271 271 274 278 279 278 276 274 277 279 278 280 279 281 289 294 296 295 291 291 290 284 284 287 286 286 290 292 289 286 284 283 281 280 278 277 276 275 274
270 271 272 273 273 274 275 275 276 276 277 277 278 278 279 280 280 281 281 282 282 282 281 280 280 279 278 278 280 279 281 282 283 284 282 278 275 275 274 273 271 271 270 270 271 271 272 272 271 272 273 275 278 277 276 273 272 276 275 274 277 276 282 292 293 292 291 288 288 288 285 287 291 291 290 290 290 290 288 286 284 281 279 278 277 276 275 274
272 273 273 274 275 275 276 277 278 278 279 279 280 280 281 281 281 281 282 282 282 282 282 281 281 280 279 280 281 280 283 284 282 280 275 275 276 276 275 273 272 272 272 271 271 271 271 270 270 272 273 274 275 275 274 271 270 272 271 272 277 279 286 292 289 285 286 286 287 287 287 288 291 293 293 291 290 291 290 287 285 282 279 278 278 277 277 277
273 273 274 274 275 275 276 277 278 279 279 280 281 282 282 282 282 281 282 282 282 282 281 280 281 279 278 281 282 281 282 281 280 280 278 276 274 273 273 273 273 273 272 270 269 269 268 269 270 271 271 272 273 272 266 262 267 273 274 276 280 284 287 290 289 287 287 288 290 290 287 287 289 292 293 291 290 288 287 286 285 282 280 280 280 280 280 280
273 274 275 275 275 276 277 277 278 279 279 280 281 281 282 282 282 281 281 280 279 280 280 279 279 278 278 281 283 281 279 278 280 281 279 277 274 272 272 272 274 273 269 266 266 267 268 270 271 269 268 266 267 264 257 262 276 281 284 283 285 288 286 286 288 290 291 290 290 289 287 287 289 292 293 292 289 286 283 283 285 284 284 283 284 284 284 284
274 276 277 277 278 278 279 279 279 279 279 280 282 282 282 282 282 282 281 279 278 278 278 278 277 276 277 280 281 280 279 278 278 278 278 277 274 272 272 273 272 269 265 264 267 269 270 271 268 264 265 266 269 269 269 279 289 288 287 285 285 285 284 285 287 290 294 290 287 286 286 288 290 292 292 289 286 284 282 283 286 287 288 288 288 287 286 286
274 275 276 277 278 279 280 280 280 280 280 280 281 283 283 283 283 282 279 278 278 277 276 276 277 275 276 279 280 281 281 277 275 275 274 272 271 272 272 271 269 266 265 267 269 271 272 269 265 265 269 274 278 280 282 288 289 284 283 282 282 282 283 285 287 292 295 288 286 287 288 289 290 291 290 287 284 282 282 285 287 289 290 290 289 288 288 287
272 273 274 275 277 277 278 279 280 281 281 281 282 283 284 286 287 285 283 278 275 276 276 275 276 276 276 279 281 280 279 274 272 270 269 269 270 270 270 269 268 266 268 270 270 272 270 265 265 271 277 281 283 283 283 282 280 280 280 280 280 280 282 286 289 294 295 287 287 291 292 290 290 290 288 286 284 283 285 286 287 288 289 288 288 289 290 292
271 271 273 274 275 276 277 278 279 280 282 284 285 286 287 288 289 290 290 285 280 278 278 279 279 279 280 282 281 279 275 272 271 270 268 269 267 266 268 269 268 269 270 268 268 269 266 263 269 279 283 284 282 279 278 277 278 278 278 277 277 279 284 288 291 294 294 289 290 296 295 290 290 289 287 287 285 286 289 287 286 287 288 289 290 292 293 294
270 270 271 272 273 274 275 277 278 281 283 285 287 288 289 290 291 291 291 291 288 284 282 284 283 282 284 284 280 276 273 272 271 268 266 264 262 262 265 266 268 269 268 267 267 266 264 267 278 285 283 281 277 275 276 277 278 277 275 274 275 280 285 286 290 296 295 292 293 298 295 290 291 291 290 290 289 289 291 289 289 290 291 293 294 295 294 295
270 269 267 268 270 272 273 275 278 280 282 284 287 288 290 292 293 294 295 295 293 290 289 288 286 286 287 282 276 271 269 269 267 266 262 259 259 259 260 263 265 266 267 268 270 269 269 275 283 282 277 276 275 274 274 276 278 278 275 274 277 284 286 285 290 295 294 292 294 299 297 294 296 299 296 296 294 295 295 294 295 297 298 300 301 296 289 306
272 270 269 269 269 271 274 276 279 282 283 285 288 290 293 295 297 298 300 300 297 297 297 293 290 290 289 281 272 266 263 264 264 265 262 258 257 258 259 261 263 266 268 271 273 273 274 278 280 277 275 275 274 274 274 275 278 277 276 278 284 288 288 287 292 294 293 293 296 304 304 297 298 298 295 297 298 299 302 303 303 305 306 307 305 258 267 330
278 278 279 277 276 277 276 277 281 283 285 288 291 294 295 298 301 302 305 305 301 301 303 300 294 288 289 283 266 262 261 263 266 265 262 259 256 256 257 258 261 265 268 272 272 272 274 277 277 276 277 275 272 273 276 276 274 275 280 288 292 291 289 290 295 292 287 289 293 294 289 291 295 296 296 298 301 305 310 312 313 316 315 305 190 170 324 336
278 279 280 281 282 281 279 279 280 281 284 288 291 293 295 298 300 303 311 310 304 309 316 327 336 272 281 290 285 278 266 268 275 269 265 264 259 256 256 258 261 263 267 268 266 267 273 277 276 277 278 273 270 275 285 282 272 276 287 294 291 291 291 292 293 286 283 287 287 279 260 275 289 292 297 300 303 312 316 324 334 335 315 182 158 172 331 334
274 275 277 280 281 281 282 281 278 277 281 285 288 290 291 295 296 301 313 313 299 316 325 299 292 283 282 286 286 283 273 273 276 268 272 275 267 261 257 258 260 262 265 264 262 266 273 275 277 278 276 275 279 284 290 285 275 280 288 289 287 289 287 286 286 284 286 290 286 269 249 253 277 283 290 297 301 319 328 347 9 2 168 162 146 340 327 308
273 274 274 273 272 274 278 279 278 281 285 286 287 288 289 293 295 296 298 266 278 305 304 287 288 287 287 281 274 272 273 274 271 269 272 271 269 268 265 265 265 264 265 265 266 271 276 278 280 277 274 281 289 290 288 284 279 281 285 284 283 282 279 280 283 283 285 284 272 243 229 236 279 285 288 292 299 328 339 359 18 351 175 163 301 321 314 238
272 273 271 268 268 271 275 280 284 288 290 290 289 291 293 294 295 293 266 248 281 300 298 292 289 284 281 274 266 265 266 267 270 274 275 271 271 275 276 277 276 274 274 272 274 278 281 281 278 276 281 288 291 290 287 284 281 280 280 280 279 277 277 275 272 274 282 274 263 255 252 244 272 288 292 293 298 336 334 341 354 312 221 206 286 300 280 232
270 271 270 268 269 272 276 281 287 290 292 292 292 295 296 293 288 271 226 265 290 298 294 292 290 287 280 268 260 260 260 261 267 273 276 275 274 275 278 280 281 283 283 280 281 286 286 283 283 287 292 291 288 286 283 281 279 277 274 272 274 278 278 269 255 252 230 266 271 274 266 241 234 262 285 294 289 287 292 296 306 304 270 256 283 284 251 268
272 270 270 269 270 273 277 281 285 289 290 291 293 293 291 289 272 248 247 272 292 306 299 300 307 316 308 272 258 262 265 263 265 270 274 276 274 273 274 277 281 285 284 284 287 289 286 284 288 292 291 287 283 277 274 274 273 271 264 256 258 281 290 262 218 213 210 249 270 278 248 233 243 260 271 276 280 285 291 293 294 291 267 265 282 278 266 287
272 271 271 271 272 275 278 281 284 286 286 287 288 284 280 274 259 254 256 261 257 258 278 279 276 284 289 283 277 277 278 275 273 272 271 271 272 273 272 275 279 279 279 283 287 289 287 285 284 284 284 283 277 270 270 273 273 270 262 248 231 209 279 258 238 265 248 251 261 253 233 242 257 269 277 281 289 295 297 299 297 292 285 281 286 288 286 289
272 271 271 272 273 276 279 281 282 282 282 280 279 276 263 247 253 262 265 263 260 264 272 275 278 283 286 284 283 283 283 280 276 270 267 266 268 271 271 273 277 278 279 281 282 283 284 283 282 279 279 279 276 274 276 277 275 273 268 256 239 231 231 236 229 241 265 269 253 215 208 242 262 272 282 287 291 294 294 295 295 295 294 291 291 293 291 287
270 270 271 272 273 276 278 279 278 277 275 272 269 260 249 248 257 265 269 271 270 271 274 277 281 284 285 284 283 284 281 276 273 270 268 268 270 272 273 271 271 272 273 272 273 275 272 274 280 282 280 280 280 278 275 270 266 265 261 246 240 245 247 248 249 255 270 299 248 211 228 258 268 275 280 284 286 288 291 294 296 299 299 301 303 297 283 285
270 270 270 271 273 275 276 274 272 270 267 265 257 249 251 256 261 264 268 273 273 274 279 281 280 281 283 284 282 281 277 270 269 270 268 268 268 267 267 267 266 266 267 266 268 271 267 270 277 279 278 277 275 272 267 262 258 257 250 244 252 258 255 252 258 264 268 279 262 254 259 268 276 282 282 284 288 289 292 294 298 304 303 305 307 296 286 287
271 271 270 271 273 273 271 269 267 262 259 254 246 249 258 263 264 266 268 271 271 271 275 276 275 275 275 277 279 280 278 273 271 267 263 263 263 262 264 268 270 270 269 267 266 266 266 271 274 274 275 273 271 271 265 258 255 251 251 260 268 266 255 250 254 269 257 257 262 258 266 275 280 281 280 283 287 286 287 288 292 298 298 300 303 300 297 294
273 272 272 272 271 269 266 264 261 255 250 246 246 253 261 264 265 267 267 268 268 269 268 266 268 269 268 271 275 277 277 274 270 263 262 263 263 268 272 272 269 268 266 262 261 260 261 268 271 270 272 271 269 269 263 254 251 249 252 259 261 258 253 241 227 244 248 251 261 246 258 270 268 269 275 279 282 284 286 287 289 293 293 299 305 304 300 295
273 273 273 272 272 269 264 260 256 249 242 240 244 252 259 262 264 265 266 267 267 265 263 263 264 266 267 268 272 274 273 271 268 263 263 261 260 268 273 269 264 262 258 254 254 256 256 261 268 268 269 271 268 265 260 255 252 250 252 256 254 255 258 248 239 245 247 250 259 244 243 255 260 269 276 278 280 282 282 280 280 283 289 298 305 304 298 293
272 273 272 272 271 269 264 257 251 243 238 241 246 252 258 262 265 267 267 265 264 262 262 264 265 265 266 268 270 271 270 270 268 265 262 259 260 264 264 262 260 258 257 256 260 267 266 256 257 266 270 270 265 262 262 262 262 261 260 258 255 255 258 259 255 249 249 257 264 254 244 244 255 268 276 275 275 275 274 277 279 282 289 298 302 300 297 295
272 272 270 271 270 268 264 253 246 245 243 245 251 255 258 261 265 268 266 264 262 262 263 265 264 264 265 267 268 269 270 270 269 268 266 263 263 264 263 263 261 261 267 270 270 275 277 266 259 264 267 266 266 267 271 273 275 275 271 265 265 262 256 256 258 248 247 248 248 255 261 247 251 264 272 272 273 276 280 283 283 285 293 299 299 298 295 290
272 270 270 270 268 266 262 254 251 251 248 249 255 258 259 262 265 267 268 267 265 265 266 266 265 264 264 265 267 269 270 270 269 267 267 266 265 267 269 270 269 268 271 275 275 275 277 275 267 263 264 267 271 273 276 279 279 276 269 264 265 262 251 244 248 253 250 249 252 257 263 258 257 264 272 276 280 285 288 290 290 292 296 297 295 295 292 287
271 270 270 270 267 264 259 254 252 249 248 254 261 261 259 261 264 266 268 267 265 266 267 266 266 266 267 268 270 270 270 270 270 268 269 270 271 271 272 272 273 273 272 272 273 272 269 264 261 263 267 271 273 275 276 277 275 268 262 260 256 253 253 252 253 261 264 260 260 262 261 264 268 272 277 281 285 287 290 294 297 297 294 292 291 290 289 287
273 272 269 266 264 259 252 252 255 252 253 258 261 260 260 260 261 264 265 264 265 266 267 266 267 268 269 270 269 268 268 267 268 270 270 269 270 271 272 273 273 272 267 264 266 270 265 258 258 266 274 276 276 276 275 274 272 266 266 266 260 257 261 261 261 266 270 264 261 260 260 266 273 279 280 283 286 288 289 291 293 294 293 292 290 288 288 287
274 272 268 264 259 253 251 256 258 256 258 260 259 259 259 258 259 262 264 264 264 265 266 268 268 269 269 268 266 267 267 264 265 268 269 268 270 272 274 274 274 270 266 267 270 269 263 259 259 260 259 266 272 273 273 275 278 278 279 279 278 279 280 279 275 271 268 266 260 255 264 273 275 279 282 284 285 285 284 283 285 288 289 290 290 291 291 290
274 271 270 267 260 257 258 258 253 251 254 258 260 260 259 259 261 263 263 265 265 265 267 267 268 269 269 269 269 271 270 268 268 270 272 273 273 273 272 272 272 271 270 273 272 267 265 264 261 259 256 257 262 267 269 272 279 284 284 282 283 284 283 283 279 268 268 273 265 261 270 276 277 281 282 278 273 273 275 277 280 283 283 284 286 288 289 290
273 271 269 266 259 257 260 255 247 245 246 248 252 258 261 263 264 264 265 267 267 267 268 268 268 268 268 270 273 274 273 273 273 274 274 273 272 272 272 271 271 271 272 272 271 271 276 277 272 270 267 267 270 274 275 277 281 284 284 282 282 281 279 277 273 270 273 275 270 271 277 278 280 283 279 273 272 276 276 276 277 280 281 282 283 283 284 285
271 269 267 264 259 257 256 254 251 248 247 246 247 252 258 261 262 261 261 263 265 266 268 269 268 266 266 268 271 274 276 276 276 275 273 272 272 272 273 273 274 275 275 274 275 275 276 276 276 276 275 273 274 276 276 277 280 282 283 284 283 281 280 275 272 274 277 275 276 281 282 283 286 286 281 279 282 284 283 280 278 278 279 280 281 283 284 284
269 268 268 265 264 263 261 260 259 256 253 249 248 254 259 260 260 260 257 257 260 262 263 266 267 268 269 272 274 275 276 274 273 273 271 270 271 273 274 274 275 275 275 276 275 273 274 277 275 274 277 275 270 272 277 280 284 287 288 289 288 285 282 280 279 281 281 279 281 284 286 288 288 284 282 284 285 284 284 282 280 278 277 278 278 280 282 284
268 268 268 267 267 268 267 265 262 261 260 254 251 256 260 259 261 263 260 258 260 262 264 266 269 271 273 276 273 270 269 267 264 263 264 265 268 270 272 272 272 271 271 273 273 271 276 280 276 279 287 285 280 282 286 288 289 290 289 288 286 284 282 282 283 285 284 282 284 285 285 285 282 279 279 279 279 280 280 279 278 276 275 275 275 276 279 281
268 267 268 267 267 267 266 265 263 261 262 260 257 258 259 257 259 261 262 262 262 263 264 266 269 269 267 265 260 257 257 255 254 257 262 266 267 269 270 270 272 273 273 274 276 278 281 283 283 287 290 286 285 288 289 290 291 288 284 283 283 282 281 282 284 285 283 281 282 282 280 278 277 277 275 272 271 271 271 271 272 271 271 272 273 274 277 278
267 267 267 266 266 265 264 264 263 261 262 263 261 259 258 258 258 259 261 263 262 262 261 261 261 260 259 261 265 267 269 269 270 272 274 275 275 275 276 276 277 278 277 277 279 281 283 285 288 289 284 281 286 288 288 294 295 283 280 283 284 283 282 282 282 280 276 274 276 277 276 276 276 276 274 272 269 266 266 271 272 272 273 275 275 276 277 278
Height
3183 3183 3183 3183 3183 3182 3182 3182 3182 3182 3181 3181 3181 3181 3181 3181 3180 3180 3180 3180 3180 3180 3180 3179 3179 3179 3179 3178 3178 3178 3177 3177 3177 3177 3176 3176 3175 3175 3175 3175 3174 3174 3174 3173 3173 3173 3173 3172 3172 3172 3172 3171 3171 3170 3170 3169 3169 3168 3167 3166 3165 3165 3165 3165 3164 3163 3161 3161 3161 3160 3160 3158 3158 3158 3156 3155 3155 3155 3155 3155 3155 3154 3155 3154 3153 3153 3152 3152
3182 3182 3182 3182 3181 3181 3181 3181 3181 3181 3180 3180 3180 3180 3180 3180 3179 3179 3179 3179 3179 3179 3178 3178 3178 3178 3177 3177 3177 3176 3176 3176 3176 3176 3175 3175 3174 3174 3174 3173 3173 3173 3172 3172 3172 3171 3171 3171 3171 3171 3170 3170 3169 3169 3168 3168 3167 3166 3165 3163 3163 3164 3163 3163 3163 3162 3161 3159 3159 3159 3158 3156 3156 3156 3154 3152 3153 3153 3153 3154 3154 3153 3153 3153 3151 3150 3150 3149
3181 3181 3181 3180 3180 3180 3180 3180 3179 3179 3179 3179 3179 3179 3179 3179 3178 3178 3178 3178 3177 3177 3177 3177 3177 3176 3176 3176 3175 3175 3174 3175 3175 3174 3174 3174 3173 3173 3173 3172 3172 3171 3171 3170 3170 3170 3170 3169 3169 3169 3169 3169 3168 3167 3167 3167 3166 3164 3163 3161 3162 3163 3162 3161 3162 3161 3160 3158 3156 3157 3156 3155 3155 3154 3152 3150 3150 3150 3151 3153 3153 3151 3151 3151 3149 3148 3147 3147
3179 3179 3179 3179 3179 3179 3179 3178 3178 3178 3178 3177 3177 3177 3177 3177 3177 3177 3177 3176 3176 3176 3175 3175 3175 3175 3175 3174 3174 3173 3173 3173 3173 3173 3173 3172 3172 3172 3171 3171 3170 3170 3169 3169 3168 3168 3168 3167 3167 3167 3167 3167 3166 3166 3165 3165 3164 3162 3160 3160 3161 3161 3160 3160 3161 3160 3158 3156 3154 3154 3154 3152 3153 3151 3149 3149 3147 3147 3150 3151 3150 3149 3149 3149 3147 3145 3145 3144
3178 3178 3178 3178 3178 3177 3177 3177 3177 3177 3176 3176 3176 3176 3175 3175 3175 3175 3175 3175 3175 3174 3174 3174 3173 3173 3173 3173 3172 3172 3171 3171 3171 3172 3171 3171 3170 3170 3170 3170 3169 3168 3168 3167 3167 3167 3166 3166 3165 3165 3165 3164 3164 3163 3163 3163 3162 3159 3158 3158 3159 3159 3157 3157 3159 3158 3156 3155 3153 3152 3151 3150 3150 3148 3147 3146 3144 3145 3149 3149 3148 3147 3147 3145 3144 3143 3142 3142
3176 3176 3176 3176 3176 3176 3176 3175 3175 3175 3174 3174 3174 3174 3174 3174 3174 3174 3173 3173 3173 3173 3172 3172 3172 3172 3171 3171 3171 3170 3170 3169 3170 3170 3170 3169 3169 3169 3168 3168 3168 3167 3166 3166 3165 3165 3164 3164 3163 3163 3163 3162 3161 3161 3161 3160 3159 3157 3155 3156 3157 3157 3155 3155 3156 3155 3154 3153 3152 3151 3150 3148 3147 3146 3145 3142 3142 3144 3147 3147 3146 3145 3144 3142 3141 3141 3140 3140
3174 3174 3174 3174 3174 3174 3174 3173 3173 3173 3172 3172 3172 3172 3172 3171 3171 3171 3171 3171 3171 3171 3171 3170 3170 3170 3170 3169 3169 3168 3166 3168 3170 3169 3168 3168 3167 3167 3167 3167 3166 3165 3164 3164 3163 3162 3162 3162 3161 3161 3160 3159 3158 3158 3158 3157 3157 3155 3154 3154 3155 3154 3153 3153 3153 3151 3151 3150 3150 3149 3147 3147 3146 3144 3140 3137 3140 3144 3145 3144 3143 3142 3142 3140 3139 3139 3138 3137
3172 3172 3172 3172 3172 3172 3172 3171 3171 3171 3170 3170 3170 3170 3169 3169 3169 3169 3169 3169 3169 3168 3168 3168 3168 3168 3167 3167 3166 3165 3163 3166 3169 3167 3166 3165 3165 3165 3165 3165 3164 3163 3162 3162 3161 3160 3160 3159 3159 3159 3157 3157 3156 3155 3155 3154 3154 3152 3152 3152 3152 3151 3150 3151 3150 3148 3148 3148 3148 3146 3145 3145 3144 3141 3134 3132 3139 3142 3143 3142 3140 3140 3139 3138 3137 3137 3136 3135
3170 3170 3170 3169 3170 3170 3169 3169 3169 3169 3168 3168 3168 3167 3167 3167 3167 3167 3166 3166 3166 3166 3166 3166 3165 3165 3165 3164 3164 3161 3161 3166 3166 3165 3164 3163 3163 3163 3163 3162 3161 3161 3160 3159 3159 3158 3157 3157 3157 3156 3155 3154 3154 3153 3153 3151 3150 3150 3149 3149 3148 3148 3147 3147 3146 3146 3145 3145 3144 3141 3142 3143 3142 3138 3128 3129 3139 3140 3140 3139 3137 3136 3136 3136 3135 3134 3134 3133
3167 3167 3167 3167 3167 3167 3167 3167 3167 3167 3166 3166 3165 3165 3164 3164 3164 3164 3164 3164 3164 3163 3163 3163 3163 3163 3162 3162 3161 3157 3160 3165 3163 3162 3162 3161 3161 3161 3161 3160 3159 3158 3158 3157 3156 3155 3155 3154 3154 3153 3152 3152 3151 3151 3150 3149 3147 3147 3146 3145 3146 3145 3144 3144 3142 3143 3142 3142 3141 3137 3138 3140 3140 3135 3124 3127 3137 3137 3136 3136 3134 3133 3132 3133 3132 3131 3131 3130
3165 3165 3165 3165 3165 3164 3165 3164 3164 3164 3164 3163 3163 3162 3162 3161 3161 3161 3161 3161 3161 3161 3160 3160 3160 3160 3159 3159 3157 3155 3159 3161 3160 3160 3159 3159 3159 3159 3158 3157 3156 3156 3155 3154 3154 3153 3152 3151 3151 3150 3149 3149 3149 3148 3147 3146 3145 3144 3142 3141 3142 3142 3141 3141 3139 3140 3139 3138 3138 3134 3131 3134 3135 3130 3124 3128 3134 3132 3132 3132 3131 3130 3129 3129 3128 3128 3128 3127
3162 3162 3162 3162 3162 3162 3162 3161 3161 3161 3161 3161 3160 3160 3159 3159 3158 3158 3158 3158 3158 3158 3157 3157 3157 3156 3156 3155 3154 3155 3158 3157 3156 3157 3156 3156 3157 3156 3155 3154 3153 3152 3152 3151 3150 3150 3149 3148 3148 3147 3147 3146 3147 3146 3144 3144 3142 3141 3139 3137 3138 3138 3137 3138 3137 3137 3137 3134 3134 3130 3124 3126 3130 3127 3125 3129 3129 3128 3127 3127 3128 3127 3126 3125 3124 3124 3123 3123
3160 3159 3159 3159 3159 3159 3159 3158 3158 3158 3158 3157 3157 3157 3156 3156 3155 3155 3155 3155 3155 3154 3154 3154 3153 3153 3152 3151 3153 3154 3154 3154 3154 3154 3154 3154 3153 3152 3151 3151 3150 3149 3148 3148 3147 3147 3146 3145 3144 3144 3144 3143 3144 3144 3142 3141 3139 3138 3136 3133 3134 3133 3132 3134 3135 3134 3134 3131 3129 3127 3117 3116 3125 3125 3125 3126 3125 3124 3122 3122 3123 3122 3122 3121 3121 3120 3119 3120
3157 3156 3156 3156 3156 3156 3156 3156 3155 3155 3155 3154 3153 3153 3153 3153 3152 3152 3152 3151 3151 3150 3150 3150 3149 3149 3147 3148 3151 3151 3150 3151 3151 3151 3151 3151 3150 3149 3148 3148 3147 3146 3145 3144 3144 3143 3142 3142 3141 3141 3142 3142 3143 3142 3139 3137 3136 3136 3133 3130 3130 3128 3127 3132 3133 3130 3129 3126 3124 3123 3112 3108 3118 3122 3123 3123 3120 3119 3117 3117 3118 3118 3118 3117 3116 3116 3115 3116
3154 3153 3153 3153 3153 3153 3153 3153 3152 3152 3152 3151 3150 3150 3150 3149 3149 3148 3148 3148 3148 3147 3146 3146 3145 3145 3142 3144 3149 3147 3147 3149 3148 3148 3147 3146 3146 3146 3145 3144 3143 3142 3142 3141 3141 3140 3139 3139 3137 3138 3139 3140 3141 3139 3135 3132 3132 3134 3130 3126 3127 3124 3123 3129 3132 3128 3125 3122 3120 3118 3107 3103 3111 3116 3120 3120 3115 3113 3111 3111 3113 3113 3112 3111 3111 3111 3110 3111
3151 3151 3150 3150 3150 3150 3150 3150 3149 3149 3149 3148 3147 3147 3147 3146 3146 3145 3145 3144 3144 3143 3143 3142 3142 3141 3138 3140 3145 3144 3145 3145 3144 3144 3144 3144 3143 3142 3141 3140 3140 3139 3138 3138 3137 3137 3136 3135 3134 3135 3136 3138 3139 3136 3132 3129 3129 3131 3126 3122 3124 3122 3120 3123 3127 3127 3123 3117 3115 3114 3104 3099 3104 3110 3114 3116 3112 3108 3105 3105 3107 3107 3106 3106 3106 3105 3105 3106
3148 3148 3148 3147 3147 3147 3147 3147 3146 3146 3146 3145 3144 3144 3143 3143 3142 3142 3142 3141 3140 3140 3139 3138 3138 3136 3134 3137 3140 3141 3142 3141 3140 3140 3140 3141 3140 3139 3138 3136 3136 3136 3135 3134 3134 3134 3132 3131 3131 3132 3133 3135 3136 3133 3128 3125 3125 3126 3124 3120 3120 3121 3119 3118 3120 3123 3121 3113 3110 3108 3100 3095 3100 3105 3108 3110 3110 3105 3100 3099 3100 3101 3100 3101 3101 3100 3100 3101
3146 3145 3145 3145 3144 3144 3144 3144 3143 3143 3143 3142 3141 3141 3140 3139 3139 3138 3138 3138 3137 3136 3135 3134 3135 3132 3130 3134 3136 3137 3138 3137 3137 3137 3137 3138 3136 3135 3134 3133 3133 3132 3131 3131 3131 3131 3129 3128 3128 3128 3130 3131 3132 3129 3123 3121 3122 3122 3122 3120 3117 3117 3116 3115 3115 3118 3118 3110 3105 3103 3095 3091 3095 3099 3102 3104 3105 3101 3097 3096 3095 3095 3095 3095 3096 3095 3095 3095
3143 3143 3142 3142 3142 3141 3141 3141 3140 3140 3140 3139 3138 3137 3137 3136 3135 3134 3134 3134 3133 3133 3131 3130 3131 3129 3128 3131 3133 3133 3134 3134 3133 3134 3134 3134 3133 3131 3130 3129 3128 3128 3127 3128 3128 3127 3126 3125 3123 3123 3125 3126 3126 3123 3119 3119 3121 3120 3119 3118 3115 3113 3111 3112 3111 3113 3114 3105 3099 3099 3090 3087 3090 3093 3096 3098 3099 3096 3094 3094 3092 3091 3091 3090 3090 3089 3090 3089
3140 3140 3139 3139 3139 3139 3138 3138 3137 3137 3137 3136 3135 3134 3133 3132 3131 3130 3130 3130 3130 3129 3128 3127 3126 3125 3125 3127 3129 3129 3129 3130 3130 3131 3131 3130 3129 3127 3126 3125 3124 3123 3123 3125 3124 3123 3123 3119 3115 3118 3120 3121 3122 3121 3119 3119 3120 3117 3116 3114 3112 3110 3106 3108 3108 3110 3111 3098 3090 3094 3087 3081 3085 3087 3090 3092 3092 3091 3090 3091 3089 3088 3088 3085 3085 3084 3084 3084
3137 3137 3136 3136 3136 3136 3135 3135 3135 3134 3133 3133 3133 3132 3131 3129 3127 3125 3123 3124 3127 3126 3123 3124 3122 3119 3121 3125 3126 3125 3124 3124 3126 3127 3126 3126 3126 3124 3122 3120 3119 3118 3119 3122 3121 3120 3117 3110 3109 3115 3118 3119 3119 3119 3118 3116 3116 3114 3113 3111 3108 3107 3102 3102 3106 3107 3107 3095 3084 3088 3081 3074 3079 3080 3083 3087 3086 3084 3085 3086 3085 3085 3085 3082 3080 3080 3080 3080
3134 3134 3134 3133 3133 3133 3133 3132 3132 3131 3131 3130 3130 3130 3128 3127 3125 3122 3117 3114 3119 3123 3120 3119 3118 3115 3117 3121 3121 3121 3118 3117 3121 3122 3123 3123 3121 3120 3118 3115 3114 3114 3116 3118 3117 3115 3109 3103 3108 3116 3116 3116 3115 3115 3114 3112 3112 3111 3110 3108 3103 3103 3100 3097 3102 3103 3103 3093 3082 3084 3074 3062 3071 3074 3075 3081 3079 3079 3080 3080 3081 3081 3080 3079 3077 3077 3076 3076
3131 3131 3131 3130 3130 3130 3129 3129 3129 3129 3128 3128 3128 3127 3126 3124 3122 3120 3116 3108 3108 3115 3116 3115 3113 3111 3113 3116 3116 3115 3112 3111 3114 3116 3119 3118 3115 3116 3114 3111 3111 3110 3110 3112 3112 3109 3102 3101 3110 3114 3113 3112 3110 3110 3111 3109 3109 3107 3106 3105 3099 3101 3101 3094 3096 3099 3098 3092 3083 3082 3067 3051 3061 3066 3067 3074 3073 3073 3076 3075 3076 3076 3075 3075 3074 3074 3073 3073
3127 3128 3127 3127 3127 3126 3126 3126 3126 3126 3126 3126 3125 3124 3123 3122 3120 3117 3113 3106 3099 3104 3111 3110 3107 3106 3108 3110 3109 3109 3106 3106 3108 3110 3113 3112 3111 3112 3109 3108 3107 3104 3105 3107 3108 3102 3098 3103 3109 3110 3108 3107 3106 3106 3108 3107 3105 3101 3101 3102 3098 3099 3100 3094 3094 3094 3092 3089 3085 3082 3063 3042 3051 3059 3058 3066 3067 3067 3070 3070 3071 3071 3070 3069 3069 3070 3070 3070
3125 3125 3124 3124 3124 3124 3124 3124 3123 3123 3123 3123 3123 3122 3121 3119 3118 3114 3111 3104 3094 3095 3103 3103 3101 3101 3102 3102 3103 3103 3101 3101 3103 3105 3107 3107 3108 3107 3105 3105 3102 3100 3102 3104 3104 3096 3094 3102 3105 3103 3103 3103 3103 3102 3105 3106 3100 3095 3095 3099 3098 3096 3097 3094 3095 3092 3086 3084 3083 3084 3069 3042 3042 3054 3055 3058 3061 3061 3064 3065 3065 3066 3065 3064 3064 3066 3068 3068
3122 3122 3122 3122 3121 3121 3122 3122 3122 3121 3120 3121 3121 3120 3119 3117 3116 3114 3111 3104 3093 3091 3096 3096 3096 3097 3097 3098 3098 3098 3098 3098 3100 3101 3102 3102 3103 3103 3101 3100 3099 3099 3100 3101 3099 3091 3090 3099 3101 3099 3099 3099 3099 3098 3101 3103 3097 3090 3092 3097 3097 3095 3094 3093 3093 3092 3085 3081 3080 3084 3082 3056 3036 3042 3050 3051 3054 3056 3059 3060 3058 3059 3059 3059 3061 3062 3064 3066
3120 3120 3120 3119 3119 3119 3119 3120 3121 3120 3119 3119 3119 3118 3117 3116 3115 3114 3112 3106 3094 3090 3093 3093 3093 3095 3095 3097 3097 3097 3097 3097 3098 3098 3098 3099 3099 3099 3098 3097 3097 3097 3097 3098 3094 3087 3088 3094 3096 3096 3095 3094 3095 3096 3097 3099 3096 3089 3090 3094 3094 3092 3092 3090 3091 3090 3084 3080 3077 3077 3084 3074 3043 3032 3043 3047 3049 3053 3054 3055 3054 3053 3054 3056 3058 3059 3061 3063
3117 3117 3117 3117 3116 3116 3116 3118 3118 3117 3117 3116 3117 3117 3115 3115 3115 3113 3115 3111 3095 3089 3092 3092 3093 3093 3094 3096 3096 3096 3096 3096 3097 3096 3097 3097 3096 3096 3095 3094 3096 3095 3095 3095 3089 3086 3089 3091 3092 3093 3092 3091 3091 3093 3094 3095 3094 3089 3089 3090 3090 3091 3090 3088 3088 3086 3084 3079 3072 3070 3079 3081 3051 3031 3040 3045 3045 3050 3051 3052 3052 3051 3053 3054 3055 3057 3058 3060
3113 3113 3114 3114 3113 3112 3113 3114 3114 3114 3114 3113 3114 3114 3113 3114 3113 3112 3116 3109 3093 3088 3092 3092 3091 3093 3093 3094 3094 3094 3094 3094 3095 3094 3095 3096 3094 3094 3093 3093 3094 3093 3093 3092 3086 3085 3089 3088 3089 3088 3088 3088 3088 3090 3090 3091 3089 3087 3088 3087 3087 3088 3086 3087 3085 3083 3086 3078 3068 3067 3075 3078 3053 3030 3039 3044 3043 3049 3049 3050 3051 3051 3053 3053 3053 3055 3057 3058
3110 3110 3110 3110 3109 3110 3110 3111 3111 3111 3111 3111 3111 3111 3111 3111 3111 3112 3111 3100 3090 3090 3092 3090 3090 3091 3091 3092 3092 3092 3093 3092 3092 3093 3093 3093 3092 3092 3092 3092 3093 3091 3090 3089 3084 3085 3087 3085 3084 3084 3085 3086 3086 3087 3086 3086 3086 3085 3086 3083 3083 3084 3081 3084 3081 3080 3084 3073 3062 3064 3070 3075 3056 3030 3035 3042 3042 3046 3047 3049 3052 3052 3053 3052 3052 3055 3055 3054
3107 3106 3107 3107 3106 3107 3107 3108 3108 3108 3108 3108 3108 3109 3108 3108 3109 3109 3100 3091 3090 3092 3090 3089 3089 3089 3089 3089 3089 3090 3090 3090 3090 3091 3091 3091 3091 3090 3090 3090 3090 3089 3087 3086 3083 3083 3084 3082 3081 3081 3083 3084 3084 3084 3083 3082 3082 3082 3082 3081 3081 3080 3078 3079 3077 3079 3081 3067 3058 3061 3065 3069 3052 3030 3035 3042 3041 3044 3045 3047 3050 3052 3053 3051 3052 3053 3052 3052
3103 3103 3103 3103 3103 3103 3104 3105 3105 3105 3105 3105 3106 3106 3106 3107 3104 3096 3090 3090 3093 3091 3088 3090 3088 3088 3089 3088 3088 3089 3088 3088 3089 3089 3088 3088 3088 3088 3088 3088 3088 3088 3084 3082 3082 3081 3079 3078 3079 3078 3078 3081 3081 3080 3079 3078 3078 3078 3078 3080 3080 3080 3078 3076 3075 3077 3074 3062 3057 3060 3063 3059 3040 3029 3037 3041 3041 3043 3043 3045 3047 3048 3050 3049 3050 3050 3050 3050
3099 3099 3099 3099 3099 3100 3101 3101 3102 3103 3102 3103 3104 3103 3105 3104 3094 3084 3085 3091 3092 3088 3088 3089 3087 3088 3088 3086 3087 3087 3087 3087 3087 3087 3087 3086 3085 3084 3085 3085 3086 3086 3082 3081 3080 3077 3074 3073 3075 3076 3075 3077 3077 3076 3076 3074 3074 3074 3073 3075 3077 3078 3076 3073 3073 3071 3065 3057 3055 3059 3061 3050 3033 3030 3036 3037 3039 3041 3040 3042 3043 3045 3046 3046 3047 3047 3047 3047
3094 3095 3095 3095 3096 3096 3097 3098 3098 3099 3099 3100 3100 3101 3101 3095 3084 3081 3085 3087 3087 3087 3088 3087 3086 3086 3085 3083 3084 3084 3085 3084 3083 3084 3084 3083 3082 3081 3081 3082 3083 3083 3081 3080 3078 3076 3073 3068 3069 3073 3074 3073 3073 3073 3073 3072 3071 3069 3068 3070 3069 3068 3068 3066 3065 3061 3055 3053 3054 3056 3054 3041 3030 3031 3033 3034 3037 3038 3038 3039 3040 3041 3042 3042 3043 3044 3044 3044
3090 3090 3090 3090 3091 3092 3093 3094 3094 3095 3095 3095 3096 3097 3092 3083 3078 3080 3082 3082 3083 3084 3085 3085 3084 3082 3080 3080 3080 3080 3082 3080 3079 3081 3080 3080 3079 3078 3078 3079 3080 3080 3079 3078 3075 3074 3073 3067 3065 3068 3069 3069 3069 3070 3070 3069 3067 3065 3065 3066 3063 3061 3061 3059 3057 3054 3053 3052 3051 3049 3042 3032 3028 3028 3030 3033 3033 3034 3036 3036 3036 3037 3038 3039 3040 3041 3042 3042
3084 3084 3084 3085 3087 3088 3089 3089 3090 3090 3091 3091 3091 3088 3080 3075 3076 3079 3078 3079 3081 3081 3081 3082 3081 3079 3076 3075 3075 3076 3077 3076 3076 3077 3076 3076 3075 3074 3074 3075 3077 3077 3076 3076 3073 3072 3069 3064 3063 3065 3064 3065 3066 3065 3067 3066 3064 3062 3061 3060 3059 3059 3059 3057 3054 3053 3054 3051 3046 3042 3034 3029 3030 3025 3025 3030 3029 3030 3033 3033 3033 3034 3034 3036 3037 3039 3040 3040
3078 3078 3078 3080 3082 3083 3083 3083 3084 3085 3085 3086 3083 3076 3071 3071 3073 3075 3076 3077 3077 3078 3079 3078 3076 3075 3073 3072 3072 3073 3073 3073 3073 3072 3072 3072 3070 3070 3071 3072 3073 3073 3073 3073 3070 3069 3066 3060 3060 3061 3059 3060 3061 3061 3062 3062 3061 3059 3058 3058 3057 3057 3056 3055 3054 3052 3053 3048 3041 3038 3033 3030 3032 3024 3020 3026 3027 3027 3030 3030 3030 3031 3032 3033 3034 3035 3036 3035
3072 3072 3072 3073 3076 3076 3076 3077 3078 3079 3080 3079 3074 3068 3066 3067 3068 3070 3072 3074 3074 3075 3075 3074 3072 3071 3070 3069 3068 3069 3070 3069 3069 3069 3069 3069 3066 3065 3066 3068 3068 3068 3069 3069 3066 3066 3064 3058 3056 3057 3055 3055 3057 3057 3055 3055 3057 3056 3056 3056 3056 3054 3052 3052 3051 3049 3049 3045 3037 3035 3032 3030 3029 3022 3019 3023 3025 3024 3026 3027 3027 3027 3029 3030 3030 3031 3031 3030
3066 3067 3066 3067 3069 3070 3070 3071 3071 3073 3074 3071 3066 3062 3061 3061 3063 3066 3068 3069 3071 3071 3070 3069 3069 3068 3067 3066 3065 3066 3067 3066 3066 3066 3066 3065 3063 3062 3063 3064 3064 3064 3065 3065 3063 3061 3061 3057 3053 3053 3052 3051 3052 3052 3049 3050 3053 3053 3053 3053 3053 3052 3049 3048 3046 3044 3043 3040 3034 3032 3029 3025 3024 3021 3018 3019 3021 3023 3023 3023 3023 3024 3025 3026 3026 3026 3026 3026
3061 3062 3061 3062 3063 3063 3065 3065 3065 3066 3064 3061 3060 3058 3057 3058 3060 3062 3064 3064 3066 3066 3065 3065 3065 3064 3063 3062 3062 3062 3063 3062 3062 3062 3061 3061 3059 3059 3061 3061 3062 3062 3061 3061 3060 3058 3058 3055 3051 3050 3050 3047 3045 3045 3045 3047 3050 3049 3049 3049 3049 3048 3047 3044 3041 3040 3040 3036 3031 3028 3022 3018 3021 3021 3018 3017 3018 3020 3020 3020 3020 3020 3021 3022 3023 3023 3023 3022
3057 3057 3056 3057 3058 3058 3060 3060 3059 3059 3056 3056 3056 3055 3055 3057 3057 3058 3059 3059 3060 3061 3061 3061 3061 3060 3059 3058 3058 3058 3058 3057 3057 3058 3056 3056 3056 3056 3056 3058 3058 3059 3057 3056 3056 3055 3054 3052 3048 3048 3046 3040 3038 3041 3043 3043 3045 3045 3043 3043 3043 3044 3044 3041 3037 3035 3035 3030 3026 3023 3016 3012 3018 3020 3016 3015 3016 3017 3018 3018 3016 3016 3017 3018 3019 3019 3018 3015
3052 3052 3051 3053 3054 3054 3055 3053 3053 3054 3051 3051 3052 3052 3053 3054 3053 3054 3054 3054 3055 3056 3056 3056 3056 3055 3055 3054 3054 3054 3054 3052 3052 3052 3051 3050 3052 3052 3052 3053 3054 3054 3053 3051 3051 3052 3051 3048 3044 3041 3039 3035 3035 3038 3039 3038 3038 3038 3037 3037 3039 3038 3038 3036 3031 3029 3029 3024 3021 3019 3010 3005 3013 3017 3014 3013 3014 3014 3014 3015 3013 3013 3013 3013 3012 3011 3008 3006
3048 3048 3048 3049 3049 3049 3049 3048 3048 3048 3046 3046 3049 3049 3050 3050 3049 3050 3050 3049 3050 3051 3051 3051 3050 3050 3050 3050 3051 3051 3050 3048 3045 3046 3046 3045 3047 3047 3047 3048 3048 3049 3049 3046 3046 3046 3045 3042 3038 3034 3032 3031 3031 3033 3033 3032 3032 3031 3030 3033 3033 3032 3032 3029 3026 3025 3022 3019 3019 3016 3005 3000 3007 3012 3012 3012 3012 3011 3012 3011 3007 3004 3005 3005 3004 3002 3000 2999
3043 3044 3044 3044 3045 3045 3043 3042 3043 3043 3043 3044 3045 3045 3046 3046 3045 3046 3045 3045 3046 3046 3046 3045 3046 3046 3046 3046 3046 3046 3046 3044 3040 3041 3042 3042 3042 3042 3042 3043 3043 3044 3044 3042 3042 3042 3039 3037 3036 3033 3030 3028 3027 3028 3027 3026 3027 3026 3026 3028 3028 3027 3028 3025 3023 3022 3016 3014 3018 3011 2999 2999 3005 3007 3009 3010 3009 3009 3011 3006 2998 2995 2997 2996 2994 2994 2993 2992
3039 3040 3040 3040 3041 3040 3038 3038 3039 3038 3039 3041 3040 3041 3042 3041 3040 3041 3041 3041 3042 3042 3041 3041 3042 3042 3041 3041 3041 3040 3041 3040 3037 3037 3038 3038 3038 3038 3038 3038 3039 3040 3039 3039 3039 3038 3034 3033 3033 3031 3029 3027 3025 3024 3024 3024 3024 3023 3023 3025 3024 3025 3025 3022 3020 3018 3011 3009 3011 3004 2996 2999 3004 3005 3006 3008 3006 3005 3005 2999 2993 2992 2992 2988 2986 2985 2985 2985
3035 3035 3036 3036 3036 3036 3035 3036 3036 3035 3036 3037 3036 3036 3037 3035 3036 3038 3037 3036 3037 3038 3037 3036 3037 3038 3036 3036 3036 3035 3036 3036 3035 3034 3034 3034 3034 3034 3034 3034 3035 3035 3034 3035 3035 3033 3029 3027 3028 3027 3024 3023 3022 3020 3022 3022 3020 3019 3020 3021 3021 3021 3020 3020 3016 3011 3008 3005 3001 3000 2999 2997 2999 3004 3003 3002 3001 3000 2999 2995 2990 2988 2986 2985 2984 2981 2979 2978
3031 3031 3032 3032 3032 3032 3032 3032 3032 3032 3033 3033 3032 3032 3032 3031 3032 3033 3033 3032 3032 3033 3033 3031 3032 3033 3032 3032 3032 3031 3031 3031 3031 3029 3029 3029 3029 3029 3029 3030 3030 3030 3030 3030 3030 3029 3025 3022 3023 3023 3020 3020 3019 3017 3018 3018 3015 3015 3016 3016 3016 3016 3015 3015 3009 3004 3007 3001 2992 2996 3001 2994 2994 3000 2997 2993 2994 2994 2994 2992 2988 2984 2982 2980 2979 2976 2975 2974
3027 3027 3028 3028 3028 3028 3028 3028 3028 3028 3029 3029 3028 3027 3027 3027 3027 3028 3029 3029 3028 3029 3029 3027 3027 3027 3027 3028 3028 3027 3027 3026 3025 3025 3024 3024 3024 3024 3025 3025 3025 3025 3025 3025 3025 3025 3022 3018 3018 3018 3016 3016 3016 3013 3013 3013 3010 3011 3011 3011 3011 3010 3009 3007 3002 3001 3004 2998 2989 2994 2997 2992 2991 2994 2990 2987 2987 2987 2987 2987 2986 2983 2979 2976 2973 2970 2968 2968
3023 3022 3023 3024 3023 3023 3024 3024 3024 3024 3025 3026 3023 3023 3023 3023 3023 3024 3025 3025 3024 3025 3025 3023 3022 3022 3023 3023 3024 3023 3023 3022 3020 3020 3020 3019 3020 3020 3020 3020 3020 3020 3021 3021 3021 3022 3019 3014 3015 3014 3010 3009 3011 3010 3010 3009 3006 3006 3006 3006 3006 3005 3002 3000 2996 2997 2997 2991 2988 2990 2990 2988 2987 2985 2984 2983 2981 2980 2979 2979 2979 2978 2976 2973 2970 2967 2963 2961
3018 3018 3019 3019 3019 3019 3019 3020 3020 3020 3021 3022 3019 3019 3020 3019 3019 3019 3020 3021 3019 3020 3021 3019 3017 3018 3018 3018 3018 3017 3018 3018 3016 3016 3016 3016 3016 3016 3016 3016 3016 3016 3017 3017 3017 3018 3015 3011 3011 3010 3005 3003 3005 3005 3005 3005 3003 3000 3000 3000 3000 2997 2995 2993 2992 2991 2989 2984 2983 2984 2983 2982 2980 2977 2978 2978 2976 2975 2974 2972 2972 2972 2970 2969 2966 2963 2960 2957
3013 3013 3014 3014 3014 3015 3014 3015 3016 3015 3015 3016 3015 3015 3017 3016 3015 3015 3015 3016 3016 3016 3016 3015 3014 3015 3015 3014 3013 3012 3013 3013 3012 3012 3012 3012 3013 3013 3012 3012 3012 3011 3012 3013 3012 3012 3010 3007 3006 3007 3002 2998 3000 3000 2998 2998 2997 2995 2993 2993 2991 2989 2988 2987 2986 2985 2982 2978 2977 2977 2975 2974 2974 2972 2972 2971 2970 2970 2968 2966 2965 2965 2964 2963 2961 2959 2957 2955
3009 3008 3009 3009 3009 3010 3009 3009 3010 3010 3010 3011 3010 3011 3012 3011 3011 3011 3011 3011 3011 3011 3012 3011 3011 3011 3011 3010 3009 3008 3008 3008 3008 3008 3008 3007 3007 3008 3007 3007 3008 3007 3006 3007 3006 3005 3006 3002 3001 3003 2998 2992 2995 2996 2993 2995 2992 2985 2985 2986 2984 2983 2981 2979 2979 2978 2977 2974 2972 2970 2968 2967 2968 2967 2966 2965 2965 2964 2962 2960 2959 2959 2958 2958 2956 2955 2953 2951